{"data":{"norad_id":68241,"epoch":"2026-05-25T03:14:27.944160Z","epoch_age_seconds":67304,"freshness":"FRESH","line1":"1 68241U 26054K   26145.13504565  .00023352  00000+0  79799-3 0  9993","line2":"2 68241  53.1586 301.9945 0001252  79.3046 280.8096 15.30204145 10695","mean_motion":15.30204145,"eccentricity":0.0001252,"inclination_deg":53.1586,"raan_deg":301.9945,"arg_perigee_deg":79.3046,"mean_anomaly_deg":280.8096,"bstar":0.00079799,"rev_number":1069,"period_min":94.105090794928,"perigee_km":474.34465509481,"apogee_km":476.06073135399,"semimajor_km":6853.3396932244,"source":"CELESTRAK","updated_at":"2026-05-25T13:38:21.884747Z"}}